This demonstration page uses our WeatherBlox Daily Observations layout. Learn more.

Left ArrowRight Arrow

39.01783, -85.05884

Hourly Observations for June 2, 2018

Temp ( °F °C ) Dew Point ( °F °C ) Humidity (%) Winds ( mph kmh ) Pressure ( in mb ) Visibility ( mi km ) Precip ( " mm )
12:52 am 00:52 Mostly Cloudy 68 20 65 18.3 90 90 W 7 11 29.86 1011 10 16 N/A
1:52 am 01:52 Mostly Cloudy 69 20.6 65 18.3 87 87 N N/A 29.85 1011 10 16 N/A
2:52 am 02:52 Partly Cloudy 68 20 65 18.3 90 90 WNW 3 6 29.84 1011 10 16 N/A
3:52 am 03:52 Clear 65 18.3 63 17.2 93 93 N N/A 29.85 1011 10 16 N/A
4:52 am 04:52 Clear 66 18.9 65 18.3 96 96 W 3 6 29.85 1011 10 16 N/A
5:52 am 05:52 Mostly Clear with Mist and Fog 66 18.9 64 17.8 93 93 N N/A 29.86 1011 5 8 N/A
6:52 am 06:52 Sunny with Mist and Fog 67 19.4 65 18.3 93 93 N 3 6 29.88 1012 5 8 N/A
7:52 am 07:52 Sunny with Mist and Fog 70 21.1 67 19.4 90 90 N 6 9 29.88 1012 5 8 N/A
8:52 am 08:52 Sunny 73 22.8 67 19.4 81 81 ENE 7 11 29.88 1012 7 11 N/A
9:52 am 09:52 Sunny 76 24.4 68 20 77 77 NE 6 9 29.88 1012 8 13 N/A
10:52 am 10:52 Partly Cloudy 79 26.1 67 19.4 67 67 N N/A 29.89 1012 9 14 N/A
11:52 am 11:52 Partly Cloudy 81 27.2 68 20 65 65 NNW 9 15 29.90 1012 10 16 N/A
12:52 pm 12:52 Mostly Cloudy 81 27.2 68 20 65 65 NNW 9 15 29.90 1013 9 14 N/A
1:52 pm 13:52 Partly Cloudy 83 28.3 66 18.9 57 57 N 10 17 29.89 1012 10 16 N/A
2:52 pm 14:52 Partly Cloudy 85 29.4 66 18.9 53 53 NNW 8 13 29.88 1012 10 16 N/A
3:52 pm 15:52 Partly Cloudy 82 27.8 65 18.3 56 56 N 7 11 29.87 1011 10 16 N/A
4:52 pm 16:52 Partly Cloudy 85 29.4 65 18.3 51 51 N 6 9 29.83 1010 10 16 N/A
5:52 pm 17:52 Mostly Sunny 85 29.4 64 17.8 50 50 E 3 6 29.80 1009 10 16 N/A
6:52 pm 18:52 Mostly Sunny 85 29.4 64 17.8 50 50 W 3 6 29.79 1009 10 16 N/A
7:52 pm 19:52 Mostly Sunny 84 28.9 65 18.3 53 53 NNW 6 9 29.80 1009 10 16 N/A
8:52 pm 20:52 Partly Cloudy 80 26.7 66 18.9 62 62 NNW 6 9 29.82 1010 10 16 N/A
9:52 pm 21:52 Partly Cloudy 79 26.1 66 18.9 65 65 N 6 9 29.82 1010 10 16 N/A
10:52 pm 22:52 Mostly Clear 75 23.9 67 19.4 76 76 W 3 6 29.84 1011 10 16 N/A
11:52 pm 23:52 Partly Cloudy 74 23.3 67 19.4 79 79 W 5 7 29.85 1011 10 16 N/A

Powered by AerisWeather